Skip Page Navigation
NASA JPL Caltech
NASA Logo - Jet Propulsion Laboratory + View the NASA Portal
+ Near-Earth Object (NEO) Program
Search JPL
JPL Home Earth Solar System Stars & Galaxies Technology
JPL Solar System Dynamics
BODIES ORBITS EPHEMERIDES TOOLS PHYSICAL DATA DISCOVERY FAQ SITE MAP
JPL Small-Body Database Browser
Search: [ help ]  
100051 Davidhernandez (1991 TC16)
Classification: Main-belt Asteroid          SPK-ID: 2100051
Ephemeris | Orbit Diagram | Orbital Elements | Physical Parameters | Discovery Circumstances | Close-Approach Data ]

[ show orbit diagram ]
Orbital Elements at Epoch 2457000.5 (2014-Dec-09.0) TDB
Reference: JPL 9 (heliocentric ecliptic J2000)
 Element Value Uncertainty (1-sigma)   Units 
e .03917942843103813 4.524e-08  
a 2.187693516780227 1.7691e-08 AU
q 2.10198093521049 9.9081e-08 AU
i 5.834223802566766 6.0761e-06 deg
node 198.1257014052805 6.2573e-05 deg
peri 222.3285986900864 0.00011961 deg
M 33.66930929615474 0.00010261 deg
tp 2456889.962445289177
(2014-Aug-20.46244529)
0.00033664 JED
period 1181.892962100082
3.24
1.4337e-05
3.925e-08
d
yr
n .3045961111066465 3.6948e-09 deg/d
Q 2.273406098349964 1.8385e-08 AU
  Orbit Determination Parameters
   # obs. used (total)      426  
   data-arc span      12172 days (33.33 yr)  
   first obs. used      1981-10-01  
   last obs. used      2015-01-28  
   planetary ephem.      DE431  
   SB-pert. ephem.      SB431-BIG16  
   condition code      0  
   fit RMS      .56092  
   data source      ORB  
   producer      Otto Matic  
   solution date      2015-Mar-09 18:24:23  

Additional Information
 Earth MOID = 1.116 AU 
 T_jup = 3.668 
[ show covariance matrix ]

Ephemeris | Orbit Diagram | Orbital Elements | Physical Parameters | Discovery Circumstances | Close-Approach Data ]

Physical Parameter Table
Parameter Symbol Value Units Sigma Reference Notes
absolute magnitude H 16.6 mag n/a MPO276128  

100051 Davidhernandez           Discovered 1991 Oct. 6 by A. Lowe on plates taken at Palomar.
David A. Hernandez (b. 1998) is a nephew of the discoverer.
NOTE: some special characters may not display properly (any characters within {} are an attempt to place the proper accent above a character)
Reference: 20060413/MPCPages.arcLast Updated: 2006-04-17

[ show close-approach data ]
Alternate Designations
 1991 TC16 = 2004 VD74 
Ephemeris | Orbit Diagram | Orbital Elements | Physical Parameters | Discovery Circumstances | Close-Approach Data ]
ABOUT SSD CREDITS/AWARDS PRIVACY/COPYRIGHT GLOSSARY LINKS
FirstGov 2015-Apr-20 00:48 UT
(server date/time)  
NASA Home Page
Site Manager:   Ryan S. Park
Webmaster  Alan B. Chamberlin